Location: Silverdale
(47.6506°N, 122.6941°W)
Time: 04:06:27
(UTC+00:00)

Altair - Pass Details

Date: 10 October 2022
Orbit: 1501 x 1682 km, 47.2° (Epoch: 05 December)

Event Time Altitude Azimuth Distance (km) Brightness Sun altitude
Rises 09:26:47 0° 193° (SSW) 4,679 - -44.9°
Reaches altitude 10° 09:30:29 10° 181° (S) 3,725 - -44.5°
Maximum altitude 09:37:39 25° 131° (SE) 2,782 - -43.9°
Exits shadow 09:39:37 23° 113° (ESE) 2,884 8.9 -43.7°
Drops below altitude 10° 09:45:01 10° 81° (E) 3,848 10.0 -43.1°
Sets 09:48:53 0° 69° (ENE) 4,865 10.8 -42.7°
